{"data":{"norad_id":48291,"intl_designator":"2021-036R","name":"STARLINK-2555","alt_names":[],"object_type":"PAYLOAD","status":"ACTIVE","operator":null,"country":"US","launch_date":"2021-04-29","launch_site_code":"AFETR","launch_vehicle":null,"mission":null,"orbit_class":"UNKNOWN","rcs_meters":null,"size_class":null,"mass_kg":null,"dimensions":null,"purposes":["comms"],"wikipedia_slug":null,"has_3d_model":false,"image_url":null,"decayed_at":null,"tle_current":{"epoch":"2026-09-19T11:22:26.223168Z","epoch_age_seconds":122376,"freshness":"FRESH","line1":"1 48291U 21036R   26262.47391462  .00001095  00000+0  47050-4 0  9994","line2":"2 48291  53.1606 255.9836 0001684 106.6396 253.4791 15.31707062298063","mean_motion":15.31707062,"eccentricity":0.0001684,"inclination_deg":53.1606,"raan_deg":255.9836,"arg_perigee_deg":106.6396,"mean_anomaly_deg":253.4791,"bstar":4.705e-5,"rev_number":29806,"period_min":94.012754509321,"perigee_km":469.56559651106,"apogee_km":471.87229119295,"semimajor_km":6848.855943852,"source":"CELESTRAK","updated_at":"2026-09-20T09:00:38.930012Z"}}}